Location: Long Geng
(2.6167°N, 114.1333°E)
Time: 05:52:28
(UTC+00:00)

COSMOS 2428 - Pass Details

Date: 14 May 2021
Orbit: 844 x 859 km, 70.9° (Epoch: 13 June)

Event Time Altitude Azimuth Distance (km) Brightness Sun altitude
Exits shadow 19:58:04 25° 139° (SE) 1,656 4.3 -32.2°
Maximum altitude 20:00:00 31° 105° (ESE) 1,460 4.3 -31.8°
Drops below altitude 10° 20:04:54 10° 45° (NE) 2,469 5.9 -30.7°
Sets 20:07:37 0° 35° (NE) 3,405 6.7 -30.1°
